Flag for Hungary Weather past 2 weeks in Miskolc, Hungary

Now
78 °F

Clear.


Feels Like: 79 °F
Forecast: 64 / 96 °F
Wind: No wind

Location: Miskolc

Current Time: Aug 30, 2015 at 10:15:28 PM

Latest Report: Aug 30, 2015 at 9:00 PM


Visibility: 16 mi

Pressure: 30.11 "Hg

Humidity: 60%

Dew point: 63 °F

Location of MiskolcLocation

Historic Weather in Miskolc — Graph

°F

Miskolc temperature yesterday

Maximum temperature yesterday: 93 °F (at 4:00 PM)
Minimum temperature yesterday: 63 °F (at 7:00 AM)
Average temperature yesterday: 78 °F

Past Weeks' High & Low Weather Summary

 TemperatureHumidityPressure
High94 °F (Aug 30, 4:00 PM)89% (Aug 19, 3:00 PM)30.23 "Hg (Aug 19, 3:00 PM)
Low52 °F (Aug 21, 5:00 AM)32% (Aug 30, 5:00 PM)29.69 "Hg (Aug 17, 4:00 PM)
Average70 °F66%30.03 "Hg
* Reported Aug 15 8:00 PM — Aug 30 8:00 PM, Miskolc, Weather by CustomWeather, © 2015

Note: Actual official high and low records may vary slightly from our data, if they occured in-between our weather recording intervals... More about our weather records

Advertising

Miskolc weather history for previous 24 hours

 ConditionsComfort  
Time TempWeatherWind HumidityBarometerVisibility
8:00 PM
Sun, Aug 30
81 °FPassing clouds.No wind54%30.10 "Hg19 mi
7:00 PM86 °FPartly sunny.No wind48%30.09 "Hg19 mi
6:00 PM91 °FPassing clouds.1 mph34%30.10 "Hg19 mi
5:00 PM93 °FPartly sunny.1 mph32%30.10 "Hg19 mi
4:00 PM94 °FPartly sunny.2 mph34%30.12 "Hg19 mi
3:00 PM93 °FPartly sunny.2 mph36%30.13 "Hg19 mi
2:00 PM91 °FScattered clouds.3 mph39%30.16 "Hg19 mi
1:00 PM89 °FScattered clouds.1 mph43%30.17 "Hg19 mi
12:00 PM87 °FScattered clouds.1 mph45%30.19 "Hg19 mi
11:00 AM85 °FScattered clouds.2 mph48%30.19 "Hg19 mi
10:00 AM81 °FScattered clouds.1 mph52%30.20 "Hg19 mi
9:00 AM79 °FScattered clouds.No wind58%30.20 "Hg19 mi
8:00 AM72 °FPartly sunny.1 mph70%30.21 "Hg19 mi
7:00 AM67 °FScattered clouds.1 mph78%30.22 "Hg16 mi
6:00 AM67 °FPassing clouds.1 mph79%30.21 "Hg16 mi
5:00 AM67 °FClear.1 mph78%30.20 "Hg16 mi
4:00 AM68 °FClear.1 mph76%30.20 "Hg16 mi
3:00 AM69 °FClear.1 mph74%30.20 "Hg19 mi
2:00 AM70 °FClear.No wind73%30.19 "Hg19 mi
1:00 AM71 °FClear.No wind71%30.20 "Hg19 mi
12:00 AM72 °FClear.1 mph69%30.19 "Hg19 mi
11:00 PM
Sat, Aug 29
73 °FClear.No wind68%30.18 "Hg19 mi
10:00 PM76 °FClear.1 mph62%30.17 "Hg19 mi
Weather by CustomWeather, © 2015

See weather overviewHow to use our weather pages